User: anonymous   Login
Location: Plum
(40.5000°N, 79.7500°W)
Time: 17:04:05
(UTC-04:00)
Language:

MOZ.5/SAFIR/RUBIN 5/SL-8 - Orbit

View from above orbital plane
View from above orbital plane
View from above satellite
View from above satellite

Ground track
Ground track

The orbit data is extracted from the following two-line orbital elements,

1 28898U 05043G   16235.89080533 +.00000046 +00000-0 +18726-4 0  9998
2 28898 097.8878 033.3510 0020844 048.6921 311.6070 14.60119259199675
Epoch (UTC): 22 August 2016 21:22:45
Eccentricity: 0.0020844
inclination: 97.8878°
perigee height: 678 km
apogee height: 707 km
right ascension of ascending node: 33.3510°
argument of perigee: 48.6921°
revolutions per day: 14.60119259
mean anomaly at epoch: 311.6070°
orbit number at epoch: 19967

The dashed part of the orbit path shows where the satellite is in the earth's shadow,  

DLR